Weather in Andimeshk

Iran     33°29′09″N   48°21′10″E
temp.,
°C
wind,
m/s
gust,
m/s
humid.,
%
clouds,
%
prec.,
mm/h
press.,
hPa
HPBL,
m
19 september, sun
sun1901:30+20nw01240 0.0 101111
04:30+18nnw11260 0.0 101111
07:30+18nne11280 0.0 101211
10:30+26e01150 0.0 1012612
13:30+30w24110 0.0 10092554
16:30+31wsw76110 0.0 10082763
19:30+24sw22160 0.0 100913
22:30+21sse22200 0.0 101112
20 september, mon
mon2001:30+19se22210 0.0 101211
04:30+18ese22230 0.0 101211
07:30+17ese12250 0.0 101311
10:30+25e01150 0.0 1012759
13:30+29w13110 0.0 10092277
16:30+30wsw75120 0.0 10082196
19:30+24wsw32150 0.0 100916
22:30+20sw11200 0.0 101011
21 september, tue
tue2101:30+19nw11210 0.0 101111
04:30+17ene11240 0.0 101011
07:30+17ne11250 0.0 101111
10:30+25n01140 0.0 1011564
13:30+30wsw1390 0.0 10082101
16:30+31wsw5570 0.0 10062756
19:30+24sw22110 0.0 100711
22:30+21sse11130 0.0 100811
21 september, tue
tue2100:30+19ene11140 0.0 100811
03:30+18ne11160 0.0 100711
06:30+18ene11170 0.0 100811
09:30+26s0190 0.0 1008553
12:30+30w3580 0.0 10052453
15:30+31sw8890 0.0 10042505
18:30+24sw33150 0.0 100628
21:30+21sse11190 0.0 100711
22 september, wed
wed2200:30+19ene01220 0.0 100711
03:30+17n11230 0.0 100711
06:30+17ne11240 0.0 100811
09:30+25w12130 0.0 1009595
12:30+29wsw2490 0.0 10062172
15:30+31wsw6670 0.0 10052585
18:30+23ssw22100 0.0 100613
21:30+20sse11130 0.0 100811